Location: Jetmore Oil Field
(38.1181°N, 99.9337°W)
Time: 21:26:49
(UTC+00:00)

ISS - Visible Passes

Search period start: 23 June 2021 00:00
Search period end: 03 July 2021 00:00
Orbit: 417 x 422 km, 51.6° (Epoch: 23 June)

Date Brightness Start Highest point End Pass type
(mag) Time Alt. Az. Time Alt. Az. Time Alt. Az.
24 Jun -2.3 10:42:42 10° SSW 10:45:43 31° SE 10:48:44 10° ENE visible
25 Jun -1.6 09:56:23 11° S 09:58:24 18° SE 10:00:44 10° E visible
26 Jun -3.7 10:44:07 10° SW 10:47:28 77° NW 10:50:51 10° NE visible
27 Jun -3.5 09:58:16 24° SSW 10:00:02 58° SE 10:03:22 10° ENE visible
28 Jun -2.6 09:12:39 31° SE 09:12:40 31° SE 09:15:41 10° ENE visible
28 Jun -2.2 10:46:30 10° W 10:49:28 28° NNW 10:52:26 10° NNE visible
29 Jun -1.1 08:26:56 13° E 08:26:56 13° E 08:27:42 10° E visible
29 Jun -3.0 09:59:53 20° W 10:01:54 44° NW 10:05:09 10° NE visible
30 Jun -3.9 09:14:08 70° W 09:14:24 77° NW 09:17:46 10° NE visible
01 Jul -2.1 08:28:20 31° ENE 08:28:20 31° ENE 08:30:16 10° ENE visible
01 Jul -1.5 10:01:27 10° WNW 10:04:00 20° NNW 10:06:33 10° NNE visible
02 Jul -0.6 07:42:29 11° ENE 07:42:29 11° ENE 07:42:36 10° ENE visible
02 Jul -2.1 09:15:26 24° WNW 09:16:22 28° NNW 09:19:20 10° NNE visible
